User: anonymous   Login
Location: Caltech
(34.1382°N, 118.1253°W)
Time: 08:40:37
(UTC-07:00)
Language:

SL-16 R/B - Orbit

View from above orbital plane
View from above orbital plane
View from above satellite
View from above satellite

Ground track
Ground track

The orbit data is extracted from the following two-line orbital elements,

1 31793U 07029B   15115.89663766  .00000342  00000-0  20379-3 0  9998
2 31793 070.9761 234.3936 0002367 260.8776 238.0486 14.14322437403963
Epoch (UTC): 25 April 2015 21:31:09
Eccentricity: 0.0002367
inclination: 70.9761°
perigee height: 843 km
apogee height: 846 km
right ascension of ascending node: 234.3936°
argument of perigee: 260.8776°
revolutions per day: 14.14322437
mean anomaly at epoch: 238.0486°
orbit number at epoch: 40396

The dashed part of the orbit path shows where the satellite is in the earth's shadow,  

DLR